Location: Banff
(51.1667°N, 115.5667°W)
Time: 20:13:12
(UTC+00:00)

Vanguard 1 Rocket - Pass Details

Date: 28 November 2020
Orbit: 655 x 4221 km, 34.3° (Epoch: 17 January)

Event Time Altitude Azimuth Distance (km) Brightness Sun altitude
Exits shadow 13:30:54 12° 259° (W) 6,408 11.1 -16.5°
Maximum altitude 13:45:56 34° 207° (SSW) 3,617 10.3 -14.2°
Drops below altitude 10° 13:55:48 10° 148° (SSE) 4,016 11.5 -12.7°
Sets 13:58:42 0° 138° (SE) 4,622 12.2 -12.3°
